AC0MR Weather Reports


time (UTC)temp
C
wind
direction
speed
KPH
gust
KPH
rain 1hr
cm
rain 24hr
cm
rain mn
cm
humidity
%
barometer
mb
20260504050519 9 0.0 0.0 0.00 0.00 0.00 67 1005.2
20260504045519 10 0.0 0.0 0.00 0.00 0.00 65 1005.3
20260504044519 10 0.0 0.0 0.00 0.00 0.00 64 1005.5
20260504043519 10 0.0 0.0 0.00 0.00 0.00 63 1005.5
20260504042519 11 0.0 0.0 0.00 0.00 0.00 62 1005.7
20260504041519 11 0.0 3.2 0.00 0.00 0.00 61 1005.7
20260504040519 12 0.0 0.0 0.00 0.00 0.00 58 1005.7
20260504035519 12 0.0 0.0 0.00 0.00 0.00 58 1005.8
20260504034519 12 0.0 0.0 0.00 0.00 0.00 57 1006.0
20260504033519 13 0.0 3.2 0.00 0.00 0.00 55 1006.1
20260504032519 13 0.0 3.2 0.00 0.00 0.00 55 1006.1
20260504031519 13 0.0 4.8 0.00 0.00 0.00 53 1006.3
20260504030519 14 270 1.6 6.4 0.00 0.00 0.00 53 1006.3
20260504025519 14 248 1.6 4.8 0.00 0.00 0.00 51 1006.2
20260504024519 15 248 1.6 3.2 0.00 0.00 0.00 51 1006.0
20260504023519 15 248 3.2 4.8 0.00 0.00 0.00 48 1005.9
20260504022519 16 270 1.6 4.8 0.00 0.00 0.00 46 1006.0
20260504021519 16 293 3.2 6.4 0.00 0.00 0.00 44 1005.9
20260504020519 17 270 3.2 9.7 0.00 0.00 0.00 43 1005.8
20260504015519 17 0.0 3.2 0.00 0.00 0.00 43 1005.7
20260504014519 18 248 1.6 9.7 0.00 0.00 0.00 41 1005.6
20260504013519 18 0.0 3.2 0.00 0.00 0.00 38 1005.6
20260504012519 19 248 1.6 8.0 0.00 0.00 0.00 36 1005.4
20260504011519 20 270 3.2 11.3 0.00 0.00 0.00 33 1005.4
20260504010519 20 270 3.2 11.3 0.00 0.00 0.00 32 1005.3
20260504005519 20 270 4.8 9.7 0.00 0.00 0.00 31 1005.3
20260504004519 21 293 4.8 12.9 0.00 0.00 0.00 29 1005.2
20260504003519 21 248 4.8 19.3 0.00 0.00 0.00 29 1005.2
20260504002519 21 270 6.4 12.9 0.00 0.00 0.00 28 1005.2
20260504001518 21 270 8.0 20.9 0.00 0.00 0.00 29 1005.3
20260504000519 22 248 4.8 11.3 0.00 0.00 0.00 29 1005.3
20260503235519 22 248 6.4 16.1 0.00 0.00 0.00 28 1005.2
20260503234519 22 248 1.6 4.8 0.00 0.00 0.00 29 1005.1
20260503233518 23 315 9.7 24.1 0.00 0.00 0.00 27 1005.1
20260503232519 23 293 6.4 16.1 0.00 0.00 0.00 27 1005.2
20260503231519 23 315 8.0 16.1 0.00 0.00 0.00 26 1005.2
20260503230518 23 270 9.7 24.1 0.00 0.00 0.00 26 1005.3
20260503225519 23 248 8.0 20.9 0.00 0.00 0.00 26 1005.3
20260503224519 23 293 11.3 19.3 0.00 0.00 0.00 26 1005.3
20260503223518 24 270 9.7 30.6 0.00 0.00 0.00 28 1005.2
20260503222518 24 248 12.9 24.1 0.00 0.00 0.00 25 1005.2
20260503221518 24 293 9.7 22.5 0.00 0.00 0.00 28 1005.1
20260503220518 24 248 9.7 24.1 0.00 0.00 0.00 29 1005.0
20260503215519 24 270 11.3 30.6 0.00 0.00 0.00 29 1005.2
20260503214519 24 248 9.7 24.1 0.00 0.00 0.00 28 1005.2
20260503213519 25 248 11.3 22.5 0.00 0.00 0.00 30 1005.1
20260503212519 24 248 9.7 25.7 0.00 0.00 0.00 31 1005.1
20260503211518 24 293 9.7 24.1 0.00 0.00 0.00 33 1005.0
20260503210518 24 293 9.7 22.5 0.00 0.00 0.00 31 1005.2
20260503205518 24 270 9.7 22.5 0.00 0.00 0.00 31 1005.2
20260503204518 24 248 12.9 27.4 0.00 0.00 0.00 32 1005.2
20260503203518 24 248 12.9 24.1 0.00 0.00 0.00 32 1005.2
20260503202519 24 248 11.3 20.9 0.00 0.00 0.00 32 1005.3
20260503201518 24 248 11.3 24.1 0.00 0.00 0.00 33 1005.4
20260503200518 23 248 12.9 27.4 0.00 0.00 0.00 30 1005.3
20260503195518 23 270 14.5 29.0 0.00 0.00 0.00 31 1005.4
20260503194518 23 225 12.9 32.2 0.00 0.00 0.00 33 1005.3
20260503193518 23 315 9.7 22.5 0.00 0.00 0.00 34 1005.5
20260503192518 23 248 9.7 27.4 0.00 0.00 0.00 38 1005.5
20260503191518 23 225 8.0 16.1 0.00 0.00 0.00 38 1005.7
20260503190518 22 248 9.7 22.5 0.00 0.00 0.00 38 1005.7
20260503185518 22 248 12.9 33.8 0.00 0.00 0.00 41 1005.9
20260503184518 22 225 9.7 22.5 0.00 0.00 0.00 42 1006.0
20260503183518 22 248 9.7 20.9 0.00 0.00 0.00 41 1006.1
20260503182518 21 225 12.9 24.1 0.00 0.00 0.00 42 1006.2
20260503181518 21 225 9.7 27.4 0.00 0.00 0.00 44 1006.3
20260503180518 21 225 11.3 25.7 0.00 0.00 0.00 44 1006.5
20260503175518 20 225 11.3 22.5 0.00 0.00 0.00 44 1006.7
20260503174518 20 225 11.3 20.9 0.00 0.00 0.00 45 1006.8
20260503173518 20 203 12.9 22.5 0.00 0.00 0.00 46 1006.9
20260503172518 19 225 12.9 30.6 0.00 0.00 0.00 46 1007.0
20260503171518 18 203 14.5 29.0 0.00 0.00 0.00 45 1007.0
20260503170518 18 203 12.9 27.4 0.00 0.00 0.00 46 1007.1
20260503150518 15 203 19.3 33.8 0.00 0.00 0.00 52 1008.1
20260503130518 10 158 17.7 25.7 0.00 0.00 0.00 67 1009.6
20260503110519 10 90 3.2 9.7 0.00 0.00 0.00 62 1011.9
20260503081519 11 203 12.9 29.0 0.00 0.00 0.00 53 1013.2
20260503080519 10 203 14.5 22.5 0.00 0.00 0.00 53 1013.2